Theta_e
357 358 365 363 363 362 360 360 359 360 363 364 364 363 362 361 361 361 361 361 361 360 359 359 359 360 356 355 353 352 351 350 352 351 351 351 351 352 353 353 354 353 355
357 358 366 365 363 362 361 360 359 359 360 362 363 363 363 362 361 361 361 360 361 359 358 359 358 357 359 356 354 351 349 349 349 351 352 353 354 355 355 355 355 356 353
355 359 361 365 363 362 361 360 359 359 358 358 359 361 361 361 361 360 359 359 358 358 358 358 359 358 357 358 357 354 351 348 346 346 350 344 349 358 357 357 356 355 352
357 360 360 364 363 361 361 361 359 359 358 357 356 356 357 358 358 358 358 358 358 358 358 358 359 358 358 359 359 358 356 354 352 351 348 344 340 361 359 359 359 360 357
359 360 364 365 364 362 361 361 361 360 359 358 357 355 354 354 354 355 357 357 358 358 358 357 357 357 358 359 360 360 359 356 354 351 347 344 345 356 362 360 359 361 362
356 356 363 366 365 363 361 360 360 360 359 359 358 356 355 354 352 352 353 355 356 356 358 358 359 360 360 360 361 360 360 358 355 349 347 347 346 355 357 356 356 356 359
355 354 357 365 365 362 361 361 360 360 360 359 359 358 357 356 356 357 356 355 355 356 358 359 361 361 362 361 361 361 360 358 355 348 346 347 347 350 351 347 348 351 354
354 354 355 361 363 363 361 359 359 358 358 358 357 357 356 357 357 358 359 359 359 358 357 358 360 361 362 361 361 361 361 358 354 349 347 346 352 352 352 349 348 350 352
355 356 357 355 357 355 355 354 354 355 354 354 352 349 349 355 357 358 360 360 360 361 361 361 359 359 358 359 361 360 360 359 355 348 345 344 353 354 356 353 351 352 354
351 350 346 345 342 340 334 351 350 349 350 349 350 348 348 353 355 359 357 357 360 360 360 361 360 359 359 358 358 360 360 359 355 350 346 344 355 358 356 354 353 354 355
340 339 337 333 332 332 331 337 346 350 348 349 346 348 342 337 337 337 345 349 349 352 354 356 356 358 359 359 358 358 359 350 347 345 345 350 358 358 357 356 356 356 356
330 331 333 335 330 330 330 334 335 334 335 337 338 340 336 340 340 338 343 348 352 353 354 354 356 357 358 356 353 357 355 352 348 345 346 358 359 359 358 357 356 356 356
330 331 332 336 339 334 332 333 332 332 334 333 336 339 341 338 337 334 333 333 337 341 334 337 338 346 357 355 349 346 350 352 350 351 351 355 356 357 358 357 356 357 357
330 331 333 336 336 338 333 332 332 331 331 330 332 337 339 333 335 336 332 333 337 333 336 335 334 341 340 341 344 343 347 349 353 348 351 357 355 358 359 358 358 358 358
331 333 335 337 338 337 336 334 333 331 329 331 331 335 335 333 334 334 334 333 333 332 332 334 334 337 335 337 337 342 344 342 348 350 347 357 355 356 357 357 356 356 357
333 335 336 337 340 339 337 336 331 331 331 329 330 332 335 333 333 332 332 331 331 332 333 333 334 336 334 336 335 340 342 345 345 348 346 349 352 353 354 357 356 355 355
334 335 335 335 337 338 337 334 330 329 328 327 328 331 331 332 333 332 328 328 329 333 337 334 337 335 333 334 336 339 340 341 345 347 348 346 349 352 352 355 356 355 355
335 335 335 333 334 334 334 332 329 329 329 327 327 328 329 330 330 330 326 326 328 328 327 326 328 330 330 332 336 335 338 341 341 347 346 346 342 350 351 352 352 354 350
336 335 333 334 331 332 333 332 333 337 328 327 327 327 330 329 328 329 326 326 332 326 325 325 326 328 328 331 331 334 337 337 341 335 343 346 347 348 346 348 350 350 346
336 335 333 330 332 331 329 334 327 326 326 327 326 327 329 329 328 331 326 330 328 323 323 325 330 326 327 328 327 329 333 340 341 343 338 340 342 347 346 346 346 342 344
332 330 329 329 332 329 325 323 323 322 325 324 326 331 329 328 329 330 324 325 327 324 328 329 326 326 322 327 325 326 328 336 341 342 344 345 336 343 347 348 339 342 343
328 327 327 328 330 329 326 326 324 324 323 323 323 331 330 329 327 326 328 324 326 322 327 329 326 320 322 324 320 322 319 325 332 339 339 343 338 338 341 340 339 342 340
324 323 325 328 329 329 330 326 327 326 324 320 320 321 324 325 325 327 327 325 326 324 319 323 322 322 318 321 327 322 317 317 327 331 337 341 345 342 332 337 337 338 340
322 322 325 327 328 328 329 326 327 320 318 319 319 319 322 325 324 324 327 324 324 321 321 320 321 319 319 315 320 323 328 326 319 322 331 333 343 338 340 339 336 336 336
320 322 324 326 326 326 325 325 320 321 318 318 319 324 325 324 325 319 322 322 322 319 321 320 318 322 320 317 320 319 322 324 329 325 324 332 327 324 335 334 335 332 333
321 321 323 323 323 323 322 322 324 321 321 317 318 316 316 316 316 318 318 319 319 318 319 319 320 319 321 320 321 320 319 315 316 322 322 327 323 327 335 334 330 330 329
Wind_Speed
18 14 10 9 9 7 7 8 10 10 10 10 9 7 8 7 8 7 7 6 5 5 4 4 3 2 2 3 4 4 4 4 3 3 2 1 2 3 3 4 6 10 12
19 13 8 10 9 9 8 9 10 10 10 9 9 9 8 7 6 5 5 5 4 4 4 4 2 0 1 1 1 2 3 3 3 3 3 6 7 8 7 6 7 4 4
16 13 12 9 10 9 10 9 9 9 9 9 9 8 7 5 5 3 3 4 4 3 3 4 4 4 3 3 2 2 2 2 3 5 7 10 13 16 13 8 7 4 2
12 12 12 11 10 11 10 10 8 9 8 8 7 7 7 5 3 2 1 2 3 4 5 5 6 7 7 7 6 5 5 6 6 7 10 12 10 19 16 13 10 8 7
13 12 11 11 10 11 10 9 8 8 8 8 7 5 5 4 2 0 2 3 5 6 7 7 8 8 9 9 8 8 8 8 9 11 13 14 7 16 14 13 11 12 10
13 14 11 9 8 8 8 8 7 6 5 5 5 4 3 2 1 1 3 5 7 8 9 10 10 9 10 10 9 9 10 10 11 14 14 14 8 12 11 9 9 9 6
15 14 13 9 9 8 8 9 8 7 7 6 6 5 3 2 3 4 5 7 8 9 11 11 11 11 11 12 12 11 11 12 12 14 15 14 11 18 13 9 7 10 11
14 14 14 14 13 12 10 10 9 8 7 7 6 4 3 2 3 5 7 9 10 11 12 13 12 13 12 13 14 14 13 13 13 15 15 14 6 16 13 11 9 11 12
13 15 15 14 14 16 11 9 9 9 8 7 6 4 5 6 7 9 9 11 10 12 13 14 14 15 15 14 13 13 12 14 14 13 15 12 15 19 16 12 12 13 14
11 11 10 9 9 14 13 6 9 7 5 5 3 5 8 10 11 14 11 8 11 12 14 15 16 17 16 17 16 16 15 17 16 17 14 12 15 14 13 12 12 13 15
10 11 11 10 9 9 12 9 11 10 7 4 4 11 10 11 10 14 8 4 11 11 14 16 18 18 18 18 18 19 19 12 16 13 12 19 18 18 15 14 12 14 16
12 13 12 11 10 9 8 7 8 8 8 8 10 11 10 10 8 11 11 8 12 13 14 20 21 20 16 12 11 24 12 16 14 13 12 15 17 15 13 12 13 15 17
12 11 13 11 11 11 9 8 6 6 7 7 11 10 10 9 9 9 9 9 10 11 10 12 10 11 16 13 14 12 12 14 5 10 9 15 16 17 15 12 13 15 16
13 13 12 12 11 12 10 9 9 8 8 8 9 11 9 8 9 10 9 12 9 10 11 11 10 13 16 18 20 18 13 12 11 7 8 15 15 14 14 13 14 16 16
12 11 12 12 12 11 11 8 7 7 7 7 8 9 9 10 9 11 10 11 11 11 11 12 13 12 15 17 17 20 19 17 14 7 9 13 12 9 15 16 16 18 16
10 10 10 12 10 9 7 7 6 6 7 6 7 7 7 8 8 10 10 10 10 11 12 12 12 12 13 15 16 17 19 18 14 14 12 10 23 27 21 21 18 17 16
10 8 7 8 8 7 8 7 7 7 9 7 7 8 7 9 9 10 10 10 10 11 13 12 12 11 13 12 16 16 15 19 17 16 14 13 13 22 23 22 20 18 16
9 8 7 7 7 6 6 5 6 6 7 7 8 7 8 9 9 9 10 10 10 11 12 12 11 10 12 13 13 13 15 15 18 18 14 13 13 10 16 21 21 19 17
7 7 7 6 9 8 7 7 7 8 8 9 9 8 10 11 12 9 10 11 9 11 10 10 11 13 13 11 14 14 14 15 16 17 19 18 18 14 7 8 15 18 17
7 7 6 6 8 8 7 7 8 9 10 10 10 10 13 10 14 10 12 11 10 12 12 11 13 12 13 13 12 13 14 17 16 15 18 16 6 9 5 15 14 13 18
6 5 5 6 8 8 8 10 9 10 10 11 11 12 12 12 14 11 12 14 13 13 12 13 13 14 12 13 13 13 14 17 18 16 15 5 8 8 13 5 9 5 11
5 5 5 7 9 9 8 8 8 9 11 12 12 11 13 15 14 13 14 13 15 14 14 13 12 11 13 12 13 13 11 14 13 16 15 6 9 8 6 1 7 12 9
5 4 5 7 9 9 11 9 9 10 11 12 13 13 12 15 16 16 15 15 13 12 13 14 13 12 10 13 14 9 7 9 14 10 13 12 11 9 6 7 7 8 7
2 2 5 7 8 9 10 10 12 12 13 13 14 13 13 15 16 17 14 15 16 14 11 12 10 11 11 13 14 12 9 11 8 11 9 6 10 3 10 8 10 6 10
3 4 4 6 7 9 10 12 12 14 14 14 14 16 15 16 12 17 16 17 14 12 14 13 13 13 10 12 12 11 13 11 12 8 12 7 0 4 8 5 8 5 8
6 5 6 7 8 11 12 14 14 15 16 14 15 14 13 13 12 11 14 13 14 13 14 12 12 13 11 12 9 9 9 4 7 7 7 9 7 3 10 9 8 8 7
Wind_Direction
94 99 102 105 98 92 87 76 74 78 81 84 88 99 111 120 132 136 136 138 129 144 150 143 125 95 75 48 46 42 34 29 24 20 29 74 116 140 164 205 232 220 136
88 102 111 110 108 107 96 89 85 78 72 74 83 97 108 114 118 130 139 149 161 165 176 188 200 207 11 25 41 26 8 0 348 325 273 230 205 186 191 213 245 35 128
98 123 113 109 110 107 105 96 89 86 87 88 88 89 90 94 103 118 142 164 187 204 228 243 244 252 263 262 275 294 301 305 301 286 271 263 210 187 183 202 243 261 188
109 108 111 121 122 121 115 108 103 100 94 88 91 96 99 94 91 105 148 217 221 236 249 255 259 257 260 271 273 270 273 279 280 278 261 240 257 171 178 185 211 234 222
95 100 111 127 131 127 125 122 119 117 120 121 112 102 103 105 111 60 279 262 258 257 260 259 260 263 266 264 265 268 268 270 275 271 267 275 278 167 174 182 202 219 223
113 103 120 126 119 114 111 112 108 103 102 104 102 91 93 89 3 265 266 274 272 271 266 263 257 254 256 261 262 259 265 270 276 268 259 256 251 127 166 194 229 260 256
108 126 110 91 89 86 85 83 78 72 63 56 50 43 31 7 305 291 282 273 272 271 272 272 269 262 255 248 244 247 249 257 265 273 270 261 246 153 163 182 225 247 254
113 112 114 94 81 79 82 82 83 82 78 71 57 33 3 302 275 268 266 265 264 262 263 264 265 270 264 254 249 243 238 243 262 261 260 263 223 156 165 177 212 237 245
97 137 130 116 109 91 75 81 78 76 78 76 62 13 305 270 257 247 248 251 260 267 264 259 257 254 257 256 252 249 246 250 263 266 269 264 177 166 170 181 208 232 239
106 91 111 115 117 120 98 119 114 104 98 101 85 347 288 264 236 238 237 235 255 260 263 263 261 257 251 251 250 245 241 247 253 261 260 258 147 160 173 192 213 234 241
96 78 81 106 96 75 98 127 151 155 147 76 41 5 348 9 340 352 341 290 268 256 259 259 256 253 250 251 249 245 239 243 247 245 242 236 166 172 181 195 215 235 245
103 90 72 33 89 85 80 64 71 45 33 38 25 4 1 348 356 317 322 283 254 255 254 249 243 242 243 254 251 225 227 234 240 243 247 155 163 172 184 201 218 236 244
96 98 95 75 39 23 62 26 30 44 13 3 20 13 0 338 2 344 324 337 331 305 308 325 299 235 235 243 244 244 212 231 286 284 285 155 169 179 190 208 227 235 242
97 90 79 55 55 43 25 28 8 10 5 359 4 16 352 349 348 345 339 331 318 325 323 309 314 324 312 297 293 281 262 188 230 246 252 204 180 183 191 198 233 237 239
94 86 73 56 47 33 35 14 5 11 5 338 354 21 351 347 349 334 336 318 327 325 325 332 324 313 306 302 288 287 277 262 247 211 236 143 167 216 208 199 217 234 233
102 82 69 61 53 40 24 357 339 40 337 355 350 4 343 349 349 328 315 332 325 332 338 313 310 311 307 302 291 287 290 292 267 266 264 185 185 197 186 215 202 220 230
104 89 92 89 51 20 16 357 347 25 335 352 351 350 14 345 329 329 327 316 329 344 310 320 319 320 307 301 304 300 278 277 282 259 271 270 193 196 192 194 196 201 218
104 99 78 47 47 10 30 350 342 22 325 347 340 338 29 332 339 331 326 327 354 320 316 322 318 312 309 315 304 290 292 287 275 272 253 255 257 187 186 187 206 197 197
114 88 66 52 30 8 20 350 342 347 341 343 329 334 5 327 331 334 321 321 339 307 309 314 321 321 310 297 301 299 296 279 274 267 270 244 234 224 162 202 198 193 184
116 89 60 36 30 1 357 347 353 337 343 335 332 335 325 326 329 331 317 314 324 314 311 327 311 306 302 298 293 299 294 287 284 279 254 263 262 309 333 203 178 187 180
92 76 50 48 31 6 4 354 345 343 334 329 322 315 319 321 312 321 317 324 319 307 321 302 301 301 304 301 303 303 298 297 268 270 275 309 348 334 235 240 230 200 159
109 53 53 34 26 8 360 343 337 328 325 319 307 325 335 314 326 319 320 316 309 308 299 295 287 301 296 302 304 308 302 302 266 246 257 240 138 222 265 332 301 297 102
88 51 42 19 12 360 2 331 337 327 317 316 326 321 309 332 320 311 313 296 300 304 299 322 310 318 308 307 295 284 299 288 326 299 283 261 216 172 187 178 248 231 96
34 39 20 9 1 358 346 335 331 309 312 325 300 311 319 310 308 291 310 323 310 303 308 293 302 300 298 295 290 288 293 297 289 293 246 347 354 69 179 194 167 112 114
247 343 307 358 344 340 338 334 324 316 317 310 312 309 319 289 312 321 316 303 305 304 301 305 293 292 288 286 292 300 304 309 287 276 278 281 188 166 283 151 170 143 119
255 289 334 329 346 339 337 327 322 318 317 313 310 307 306 326 315 295 309 321 314 311 304 304 290 288 279 285 295 294 305 306 314 305 309 312 301 253 226 178 152 124 112